RDHK02 KNDZ-KNDZ

Flight info

Callsign RDHK02
Flight time 1h 45m
Altitude 9000
Route VFR
Aircraft H60/L-DV/C

Departure

Time 2026-04-13 23:36
Airport Whiting Field Naval Air Station South Airport (KNDZ)

Arrival

Time 2026-04-14 01:21
Airport Whiting Field Naval Air Station South Airport (KNDZ)
Time Latitude Longitude Altitude Speed Heading
2026-04-13 23:18 30.70162 -87.01669 180 ft 0 kts 182°
2026-04-13 23:19 30.70159 -87.01671 180 ft 1 kts
2026-04-13 23:19 30.70165 -87.01669 180 ft 0 kts
2026-04-13 23:21 30.70173 -87.01669 180 ft 4 kts
2026-04-13 23:21 30.70192 -87.01698 181 ft 8 kts 244°
2026-04-13 23:21 30.70134 -87.01702 178 ft 11 kts 179°
2026-04-13 23:21 30.70051 -87.01702 176 ft 11 kts 180°
2026-04-13 23:22 30.70043 -87.01703 176 ft 0 kts 265°
2026-04-13 23:25 30.70043 -87.01710 175 ft 1 kts 268°
2026-04-13 23:34 30.70044 -87.01710 187 ft 0 kts 260°
2026-04-13 23:34 30.70042 -87.01737 187 ft 11 kts 262°
2026-04-13 23:34 30.70038 -87.01817 187 ft 6 kts 260°
2026-04-13 23:34 30.70030 -87.01953 188 ft 27 kts 226°
2026-04-13 23:35 30.69882 -87.01881 207 ft 39 kts 136°
2026-04-13 23:35 30.69551 -87.01526 431 ft 87 kts 142°
2026-04-13 23:35 30.69080 -87.00886 364 ft 119 kts 130°
2026-04-13 23:35 30.68532 -87.00150 503 ft 123 kts 135°
2026-04-13 23:36 30.67984 -86.99425 688 ft 111 kts 134°
2026-04-13 23:36 30.67380 -86.99054 815 ft 90 kts 162°
2026-04-13 23:36 30.66785 -86.99123 807 ft 83 kts 191°
2026-04-13 23:36 30.66289 -86.99490 807 ft 93 kts 211°
2026-04-13 23:37 30.65807 -87.00069 818 ft 107 kts 219°
2026-04-13 23:37 30.65294 -87.00648 815 ft 112 kts 231°
2026-04-13 23:37 30.64752 -87.01444 689 ft 130 kts 229°
2026-04-13 23:37 30.64197 -87.02283 654 ft 128 kts 229°
2026-04-13 23:38 30.63634 -87.03105 674 ft 136 kts 229°
2026-04-13 23:38 30.63013 -87.03857 681 ft 132 kts 222°
2026-04-13 23:38 30.62328 -87.04573 682 ft 131 kts 222°
2026-04-13 23:38 30.61612 -87.05173 676 ft 124 kts 207°
2026-04-13 23:39 30.60804 -87.05646 678 ft 127 kts 206°
2026-04-13 23:39 30.60046 -87.05819 694 ft 109 kts 175°
2026-04-13 23:39 30.59188 -87.05723 676 ft 125 kts 175°
2026-04-13 23:39 30.58339 -87.05608 703 ft 127 kts 175°
2026-04-13 23:40 30.57497 -87.05489 710 ft 119 kts 175°
2026-04-13 23:40 30.56657 -87.05377 707 ft 124 kts 175°
2026-04-13 23:40 30.55786 -87.05282 724 ft 123 kts 175°
2026-04-13 23:40 30.54918 -87.05178 709 ft 125 kts 175°
2026-04-13 23:41 30.54030 -87.05081 704 ft 123 kts 175°
2026-04-13 23:41 30.53172 -87.04986 709 ft 124 kts 175°
2026-04-13 23:41 30.52305 -87.04898 705 ft 130 kts 175°
2026-04-13 23:41 30.51425 -87.04802 710 ft 127 kts 175°
2026-04-13 23:42 30.50532 -87.04705 709 ft 128 kts 175°
2026-04-13 23:42 30.49669 -87.04551 706 ft 135 kts 175°
2026-04-13 23:42 30.48751 -87.04445 695 ft 127 kts 175°
2026-04-13 23:42 30.47897 -87.04334 712 ft 123 kts 175°
2026-04-13 23:43 30.47014 -87.04226 702 ft 123 kts 175°
2026-04-13 23:43 30.46138 -87.04132 709 ft 123 kts 175°
2026-04-13 23:43 30.45270 -87.03998 716 ft 132 kts 175°
2026-04-13 23:43 30.44386 -87.03892 704 ft 125 kts 175°
2026-04-13 23:44 30.43499 -87.03848 691 ft 139 kts 182°
2026-04-13 23:44 30.42577 -87.04356 693 ft 157 kts 216°
2026-04-13 23:44 30.41886 -87.05237 713 ft 132 kts 225°
2026-04-13 23:44 30.41263 -87.06022 692 ft 130 kts 225°
2026-04-13 23:45 30.40632 -87.06812 691 ft 136 kts 225°
2026-04-13 23:45 30.40000 -87.07594 686 ft 133 kts 225°
2026-04-13 23:45 30.39372 -87.08365 686 ft 137 kts 225°
2026-04-13 23:45 30.38747 -87.09154 694 ft 139 kts 225°
2026-04-13 23:46 30.38106 -87.09926 697 ft 135 kts 225°
2026-04-13 23:46 30.37490 -87.10716 692 ft 130 kts 225°
2026-04-13 23:46 30.36860 -87.11498 686 ft 133 kts 225°
2026-04-13 23:46 30.36231 -87.12306 691 ft 137 kts 225°
2026-04-13 23:47 30.35587 -87.13114 697 ft 137 kts 225°
2026-04-13 23:47 30.34966 -87.13931 692 ft 138 kts 225°
2026-04-13 23:47 30.34335 -87.14734 688 ft 137 kts 225°
2026-04-13 23:47 30.33688 -87.15533 690 ft 134 kts 225°
2026-04-13 23:48 30.33040 -87.16335 688 ft 133 kts 225°
2026-04-13 23:48 30.32396 -87.17131 689 ft 134 kts 225°
2026-04-13 23:48 30.31743 -87.17911 688 ft 135 kts 225°
2026-04-13 23:48 30.31039 -87.18585 727 ft 138 kts 210°
2026-04-13 23:49 30.30256 -87.19154 696 ft 137 kts 210°
2026-04-13 23:49 30.29479 -87.19729 689 ft 129 kts 210°
2026-04-13 23:49 30.28703 -87.20301 687 ft 131 kts 210°
2026-04-13 23:49 30.27933 -87.20871 689 ft 134 kts 210°
2026-04-13 23:50 30.27153 -87.21448 688 ft 135 kts 210°
2026-04-13 23:50 30.26380 -87.22035 687 ft 136 kts 210°
2026-04-13 23:50 30.25606 -87.22608 683 ft 133 kts 207°
2026-04-13 23:50 30.24792 -87.23133 677 ft 133 kts 207°
2026-04-13 23:51 30.24139 -87.23839 687 ft 129 kts 231°
2026-04-13 23:51 30.23944 -87.24870 688 ft 142 kts 260°
2026-04-13 23:51 30.23807 -87.26007 689 ft 145 kts 259°
2026-04-13 23:51 30.23666 -87.27137 687 ft 143 kts 259°
2026-04-13 23:52 30.23522 -87.28264 688 ft 139 kts 259°
2026-04-13 23:52 30.23369 -87.29381 697 ft 140 kts 259°
2026-04-13 23:52 30.23226 -87.30493 690 ft 142 kts 259°
2026-04-13 23:52 30.23082 -87.31604 694 ft 139 kts 259°
2026-04-13 23:53 30.22952 -87.32737 694 ft 141 kts 259°
2026-04-13 23:53 30.22803 -87.33755 524 ft 106 kts 259°
2026-04-13 23:53 30.22701 -87.34402 373 ft 59 kts 259°
2026-04-13 23:53 30.22637 -87.34807 222 ft 50 kts 259°
2026-04-13 23:54 30.22576 -87.35205 143 ft 50 kts 259°
2026-04-13 23:54 30.22516 -87.35599 122 ft 50 kts 259°
2026-04-13 23:54 30.22452 -87.35997 83 ft 50 kts 259°
2026-04-13 23:54 30.22386 -87.36392 91 ft 48 kts 258°
2026-04-13 23:55 30.22485 -87.36732 132 ft 38 kts 270°
2026-04-13 23:55 30.22513 -87.36976 95 ft 36 kts 266°
2026-04-13 23:55 30.22489 -87.37361 82 ft 50 kts 266°
2026-04-13 23:55 30.22434 -87.37949 205 ft 107 kts 260°
2026-04-13 23:56 30.22129 -87.38840 202 ft 121 kts 246°
2026-04-13 23:56 30.21792 -87.39732 210 ft 121 kts 246°
2026-04-13 23:56 30.21456 -87.40623 205 ft 121 kts 246°
2026-04-13 23:56 30.21120 -87.41513 199 ft 121 kts 246°
2026-04-13 23:57 30.20784 -87.42405 210 ft 121 kts 246°
2026-04-13 23:57 30.20453 -87.43284 207 ft 121 kts 246°
2026-04-13 23:57 30.20112 -87.44187 200 ft 121 kts 246°
2026-04-13 23:57 30.19781 -87.45066 200 ft 121 kts 246°
2026-04-13 23:58 30.19442 -87.45967 204 ft 121 kts 246°
2026-04-13 23:58 30.19105 -87.46860 199 ft 121 kts 246°
2026-04-13 23:58 30.18770 -87.47750 205 ft 121 kts 246°
2026-04-13 23:58 30.18435 -87.48641 206 ft 121 kts 246°
2026-04-13 23:59 30.18119 -87.49481 204 ft 121 kts 246°
2026-04-13 23:59 30.17780 -87.50383 202 ft 121 kts 246°
2026-04-13 23:59 30.17449 -87.51263 198 ft 121 kts 246°
2026-04-13 23:59 30.17114 -87.52154 209 ft 121 kts 246°
2026-04-14 00:00 30.16779 -87.53046 205 ft 121 kts 246°
2026-04-14 00:00 30.16444 -87.53936 205 ft 121 kts 246°
2026-04-14 00:00 30.16109 -87.54827 200 ft 121 kts 246°
2026-04-14 00:00 30.15775 -87.55717 209 ft 121 kts 246°
2026-04-14 00:01 30.15440 -87.56610 203 ft 121 kts 246°
2026-04-14 00:01 30.15106 -87.57500 204 ft 121 kts 246°
2026-04-14 00:01 30.14771 -87.58391 201 ft 121 kts 246°
2026-04-14 00:01 30.14437 -87.59283 202 ft 121 kts 246°
2026-04-14 00:02 30.14103 -87.60173 208 ft 121 kts 246°
2026-04-14 00:02 30.13769 -87.61064 206 ft 121 kts 246°
2026-04-14 00:02 30.13435 -87.61955 199 ft 121 kts 246°
2026-04-14 00:02 30.13100 -87.62847 201 ft 121 kts 246°
2026-04-14 00:03 30.12767 -87.63737 201 ft 121 kts 246°
2026-04-14 00:03 30.12433 -87.64627 207 ft 121 kts 246°
2026-04-14 00:03 30.12098 -87.65520 201 ft 121 kts 246°
2026-04-14 00:03 30.11765 -87.66410 201 ft 121 kts 246°
2026-04-14 00:04 30.11431 -87.67302 200 ft 121 kts 246°
2026-04-14 00:04 30.11126 -87.68121 94 ft 94 kts 246°
2026-04-14 00:04 30.10929 -87.68649 90 ft 50 kts 246°
2026-04-14 00:04 30.10741 -87.69122 216 ft 91 kts 245°
2026-04-14 00:05 30.10718 -87.70005 203 ft 121 kts 279°
2026-04-14 00:05 30.10837 -87.70966 211 ft 121 kts 278°
2026-04-14 00:05 30.10957 -87.71928 202 ft 121 kts 278°
2026-04-14 00:05 30.11077 -87.72888 203 ft 121 kts 278°
2026-04-14 00:06 30.11198 -87.73849 206 ft 121 kts 278°
2026-04-14 00:06 30.11315 -87.74786 91 ft 108 kts 278°
2026-04-14 00:06 30.11386 -87.75452 91 ft 61 kts 266°
2026-04-14 00:06 30.11354 -87.76052 209 ft 107 kts 266°
2026-04-14 00:07 30.11384 -87.76984 212 ft 120 kts 294°
2026-04-14 00:07 30.12014 -87.77563 202 ft 120 kts 334°
2026-04-14 00:07 30.12774 -87.77971 202 ft 120 kts 335°
2026-04-14 00:07 30.13539 -87.78366 205 ft 120 kts 336°
2026-04-14 00:08 30.14094 -87.79001 198 ft 120 kts 275°
2026-04-14 00:08 30.13576 -87.79620 210 ft 120 kts 202°
2026-04-14 00:08 30.12810 -87.79994 206 ft 120 kts 220°
2026-04-14 00:08 30.12731 -87.80843 173 ft 124 kts 356°
2026-04-14 00:09 30.12900 -87.80421 205 ft 54 kts 113°
2026-04-14 00:09 30.12674 -87.80137 207 ft 49 kts 136°
2026-04-14 00:09 30.12374 -87.79986 204 ft 62 kts 200°
2026-04-14 00:09 30.12504 -87.80420 207 ft 78 kts 321°
2026-04-14 00:10 30.12884 -87.80769 189 ft 53 kts 321°
2026-04-14 00:10 30.13025 -87.80834 65 ft 7 kts 111°
2026-04-14 00:10 30.13009 -87.80775 62 ft 4 kts 113°
2026-04-14 00:10 30.12935 -87.80787 102 ft 31 kts 125°
2026-04-14 00:11 30.12724 -87.80580 214 ft 76 kts 130°
2026-04-14 00:11 30.12184 -87.79871 199 ft 131 kts 130°
2026-04-14 00:11 30.11480 -87.78968 192 ft 167 kts 133°
2026-04-14 00:11 30.10863 -87.78142 251 ft 103 kts 129°
2026-04-14 00:12 30.10508 -87.77651 618 ft 69 kts 128°
2026-04-14 00:12 30.10104 -87.77160 642 ft 100 kts 128°
2026-04-14 00:12 30.09785 -87.76709 789 ft 112 kts 128°
2026-04-14 00:12 30.09305 -87.75968 478 ft 118 kts 128°
2026-04-14 00:13 30.08837 -87.75250 391 ft 110 kts 126°
2026-04-14 00:13 30.08385 -87.74530 386 ft 111 kts 126°
2026-04-14 00:13 30.07936 -87.73820 382 ft 111 kts 126°
2026-04-14 00:13 30.07516 -87.73158 314 ft 71 kts 126°
2026-04-14 00:14 30.07296 -87.72813 225 ft 51 kts 126°
2026-04-14 00:14 30.07086 -87.72483 173 ft 51 kts 126°
2026-04-14 00:14 30.06913 -87.72173 334 ft 29 kts 125°
2026-04-14 00:14 30.06946 -87.72064 689 ft 11 kts 124°
2026-04-14 00:15 30.06813 -87.71750 629 ft 87 kts 122°
2026-04-14 00:15 30.06443 -87.70924 355 ft 140 kts 110°
2026-04-14 00:15 30.05814 -87.69893 48 ft 168 kts 129°
2026-04-14 00:15 30.05011 -87.68964 194 ft 158 kts 137°
2026-04-14 00:16 30.04216 -87.68137 269 ft 148 kts 141°
2026-04-14 00:16 30.03431 -87.67359 150 ft 156 kts 138°
2026-04-14 00:16 30.02568 -87.66518 121 ft 165 kts 140°
2026-04-14 00:16 30.01676 -87.65679 195 ft 166 kts 141°
2026-04-14 00:17 30.00781 -87.64842 194 ft 166 kts 139°
2026-04-14 00:17 29.99909 -87.63933 192 ft 168 kts 136°
2026-04-14 00:17 29.99038 -87.63085 222 ft 166 kts 143°
2026-04-14 00:17 29.98300 -87.62082 267 ft 158 kts 121°
2026-04-14 00:18 29.98104 -87.60876 560 ft 161 kts 92°
2026-04-14 00:18 29.98656 -87.59738 709 ft 170 kts 51°
2026-04-14 00:18 29.99771 -87.59272 702 ft 181 kts
2026-04-14 00:18 30.00120 -87.60369 100 ft 161 kts 229°
2026-04-14 00:19 29.99235 -87.60840 713 ft 132 kts 197°
2026-04-14 00:19 29.98397 -87.60968 1309 ft 114 kts 182°
2026-04-14 00:19 29.97578 -87.61117 1491 ft 135 kts 194°
2026-04-14 00:19 29.97020 -87.62115 675 ft 185 kts 266°
2026-04-14 00:20 29.97833 -87.62431 354 ft 122 kts 13°
2026-04-14 00:20 29.98488 -87.62654 1726 ft 87 kts 351°
2026-04-14 00:20 29.98789 -87.63191 2405 ft 85 kts 330°
2026-04-14 00:20 29.98860 -87.63873 2719 ft 78 kts 325°
2026-04-14 00:21 29.98788 -87.64387 3009 ft 53 kts 325°
2026-04-14 00:21 29.98622 -87.64684 3119 ft 39 kts 326°
2026-04-14 00:21 29.98455 -87.64897 3094 ft 34 kts 326°
2026-04-14 00:21 29.98368 -87.64997 2766 ft 2 kts 348°
2026-04-14 00:22 29.98388 -87.64983 1620 ft 9 kts 338°
2026-04-14 00:22 29.98508 -87.64491 465 ft 129 kts 88°
2026-04-14 00:22 29.98554 -87.63325 518 ft 151 kts 93°
2026-04-14 00:22 29.98387 -87.62169 928 ft 144 kts 118°
2026-04-14 00:23 29.97667 -87.61381 547 ft 157 kts 156°
2026-04-14 00:23 29.96556 -87.61706 282 ft 158 kts 202°
2026-04-14 00:23 29.95737 -87.62173 1411 ft 113 kts 206°
2026-04-14 00:23 29.95182 -87.62626 2728 ft 86 kts 214°
2026-04-14 00:24 29.94803 -87.63095 3973 ft 75 kts 225°
2026-04-14 00:24 29.94542 -87.63604 5020 ft 75 kts 230°
2026-04-14 00:24 29.94740 -87.64468 3745 ft 167 kts 307°
2026-04-14 00:24 29.95861 -87.65335 1412 ft 191 kts
2026-04-14 00:25 29.96786 -87.64624 800 ft 150 kts 60°
2026-04-14 00:25 29.97318 -87.63709 383 ft 133 kts 76°
2026-04-14 00:25 29.97490 -87.62654 79 ft 130 kts 84°
2026-04-14 00:25 29.97628 -87.61659 228 ft 125 kts 82°
2026-04-14 00:26 29.97986 -87.60713 242 ft 130 kts 54°
2026-04-14 00:26 29.98063 -87.60979 274 ft 94 kts 229°
2026-04-14 00:26 29.97505 -87.61545 121 ft 123 kts 218°
2026-04-14 00:26 29.96954 -87.62324 589 ft 133 kts 243°
2026-04-14 00:27 29.97235 -87.63338 969 ft 142 kts 304°
2026-04-14 00:27 29.98154 -87.63657 1165 ft 142 kts
2026-04-14 00:27 29.98877 -87.63007 1188 ft 136 kts 61°
2026-04-14 00:27 29.98792 -87.61990 1132 ft 132 kts 117°
2026-04-14 00:28 29.97985 -87.61561 1023 ft 136 kts 174°
2026-04-14 00:28 29.97195 -87.62161 923 ft 146 kts 230°
2026-04-14 00:28 29.97154 -87.63307 790 ft 151 kts 285°
2026-04-14 00:28 29.97933 -87.64057 633 ft 150 kts 341°
2026-04-14 00:29 29.98945 -87.63751 111 ft 151 kts 47°
2026-04-14 00:29 29.99181 -87.62690 119 ft 138 kts 85°
2026-04-14 00:29 29.99279 -87.61538 247 ft 136 kts 86°
2026-04-14 00:29 29.99385 -87.60435 199 ft 142 kts 86°
2026-04-14 00:30 29.99495 -87.59303 203 ft 143 kts 86°
2026-04-14 00:30 29.99613 -87.58173 202 ft 141 kts 86°
2026-04-14 00:30 29.99725 -87.57050 209 ft 140 kts 86°
2026-04-14 00:30 29.99842 -87.55926 210 ft 142 kts 86°
2026-04-14 00:31 29.99954 -87.54789 212 ft 143 kts 86°
2026-04-14 00:31 30.00066 -87.53671 208 ft 141 kts 86°
2026-04-14 00:31 30.00172 -87.52529 210 ft 143 kts 86°
2026-04-14 00:31 30.00288 -87.51394 210 ft 142 kts 86°
2026-04-14 00:32 30.00515 -87.49140 215 ft 140 kts 86°
2026-04-14 00:32 30.00631 -87.48007 214 ft 143 kts 86°
2026-04-14 00:32 30.00735 -87.46875 210 ft 142 kts 86°
2026-04-14 00:33 30.00847 -87.45741 214 ft 142 kts 86°
2026-04-14 00:33 30.00966 -87.44620 210 ft 140 kts 86°
2026-04-14 00:33 30.01094 -87.43488 211 ft 140 kts 86°
2026-04-14 00:33 30.01210 -87.42362 211 ft 144 kts 86°
2026-04-14 00:34 30.01336 -87.41235 217 ft 141 kts 86°
2026-04-14 00:34 30.01460 -87.40100 215 ft 142 kts 86°
2026-04-14 00:34 30.01586 -87.38965 214 ft 141 kts 86°
2026-04-14 00:34 30.01714 -87.37833 214 ft 144 kts 86°
2026-04-14 00:35 30.01835 -87.36687 215 ft 142 kts 86°
2026-04-14 00:35 30.01962 -87.35547 213 ft 143 kts 86°
2026-04-14 00:35 30.02080 -87.34416 213 ft 143 kts 86°
2026-04-14 00:35 30.02202 -87.33271 215 ft 145 kts 86°
2026-04-14 00:36 30.02063 -87.32113 204 ft 151 kts 102°
2026-04-14 00:36 30.01887 -87.30950 227 ft 137 kts 102°
2026-04-14 00:36 30.01739 -87.29832 227 ft 143 kts 102°
2026-04-14 00:36 30.01580 -87.28719 212 ft 142 kts 102°
2026-04-14 00:37 30.01416 -87.27614 534 ft 135 kts 102°
2026-04-14 00:37 30.01278 -87.26607 485 ft 131 kts 102°
2026-04-14 00:37 30.01143 -87.25596 513 ft 121 kts 101°
2026-04-14 00:37 30.01022 -87.24654 533 ft 116 kts 101°
2026-04-14 00:38 30.00905 -87.23732 526 ft 119 kts 101°
2026-04-14 00:38 30.00617 -87.22770 635 ft 118 kts 113°
2026-04-14 00:38 30.00342 -87.21988 902 ft 72 kts 113°
2026-04-14 00:38 30.00197 -87.21604 971 ft 51 kts 113°
2026-04-14 00:39 30.00056 -87.21224 842 ft 51 kts 113°
2026-04-14 00:39 29.99914 -87.20844 714 ft 51 kts 113°
2026-04-14 00:39 29.99771 -87.20467 591 ft 52 kts 113°
2026-04-14 00:39 29.99635 -87.20098 677 ft 51 kts 113°
2026-04-14 00:40 29.99492 -87.19722 566 ft 51 kts 113°
2026-04-14 00:40 29.99450 -87.19604 433 ft 13 kts 113°
2026-04-14 00:40 29.99461 -87.19642 293 ft 1 kts 113°
2026-04-14 00:40 29.99460 -87.19638 192 ft 1 kts 113°
2026-04-14 00:41 29.99481 -87.19691 100 ft 7 kts 113°
2026-04-14 00:41 29.99508 -87.19769 40 ft 1 kts 113°
2026-04-14 00:41 29.99496 -87.19732 44 ft 8 kts 113°
2026-04-14 00:41 29.99490 -87.19721 40 ft 0 kts 113°
2026-04-14 00:42 29.99491 -87.19721 40 ft 1 kts 113°
2026-04-14 00:42 29.99492 -87.19722 41 ft 1 kts 113°
2026-04-14 00:42 29.99490 -87.19723 41 ft 0 kts 113°
2026-04-14 00:42 29.99493 -87.19723 48 ft 0 kts 113°
2026-04-14 00:43 29.99491 -87.19725 54 ft 0 kts 113°
2026-04-14 00:43 29.99506 -87.19749 234 ft 19 kts 113°
2026-04-14 00:43 29.99699 -87.19904 414 ft 55 kts 343°
2026-04-14 00:43 30.00234 -87.20177 667 ft 103 kts 342°
2026-04-14 00:44 30.01001 -87.20268 810 ft 131 kts 17°
2026-04-14 00:44 30.01591 -87.19323 469 ft 154 kts 66°
2026-04-14 00:44 30.02133 -87.18286 798 ft 149 kts 63°
2026-04-14 00:44 30.02716 -87.17332 1197 ft 143 kts 59°
2026-04-14 00:45 30.03370 -87.16474 1478 ft 147 kts 44°
2026-04-14 00:45 30.04455 -87.16236 1278 ft 182 kts 359°
2026-04-14 00:45 30.05533 -87.17072 1056 ft 196 kts 311°
2026-04-14 00:45 30.05827 -87.18579 803 ft 196 kts 266°
2026-04-14 00:46 30.05149 -87.19870 530 ft 189 kts 221°
2026-04-14 00:46 30.04020 -87.20494 557 ft 170 kts 200°
2026-04-14 00:46 30.02947 -87.20804 1021 ft 149 kts 178°
2026-04-14 00:46 30.01875 -87.20979 718 ft 174 kts 186°
2026-04-14 00:47 30.00640 -87.21186 599 ft 181 kts 185°
2026-04-14 00:47 29.99384 -87.21336 534 ft 182 kts 183°
2026-04-14 00:47 29.98133 -87.21427 590 ft 180 kts 182°
2026-04-14 00:47 29.96974 -87.21140 496 ft 164 kts 142°
2026-04-14 00:48 29.96226 -87.20267 334 ft 147 kts 132°
2026-04-14 00:48 29.95313 -87.20048 160 ft 152 kts 206°
2026-04-14 00:48 29.95129 -87.20997 507 ft 129 kts 314°
2026-04-14 00:48 29.95813 -87.21451 293 ft 100 kts 350°
2026-04-14 00:49 29.96556 -87.21544 164 ft 124 kts
2026-04-14 00:49 29.97333 -87.21299 180 ft 106 kts 33°
2026-04-14 00:49 29.97886 -87.20848 247 ft 92 kts 43°
2026-04-14 00:49 29.98373 -87.20416 474 ft 85 kts 44°
2026-04-14 00:50 29.98877 -87.19952 199 ft 92 kts 45°
2026-04-14 00:50 29.99220 -87.19571 226 ft 41 kts 86°
2026-04-14 00:50 29.99354 -87.19504 138 ft 13 kts 84°
2026-04-14 00:50 29.99404 -87.19466 151 ft 9 kts 89°
2026-04-14 00:51 29.99443 -87.19422 95 ft 0 kts 90°
2026-04-14 00:51 29.99448 -87.19423 80 ft 1 kts 89°
2026-04-14 00:51 29.99448 -87.19413 75 ft 0 kts 86°
2026-04-14 00:51 29.99448 -87.19412 75 ft 0 kts 86°
2026-04-14 00:52 29.99448 -87.19413 75 ft 0 kts 84°
2026-04-14 00:53 29.99448 -87.19411 79 ft 1 kts 83°
2026-04-14 00:53 29.99443 -87.19406 87 ft 0 kts 84°
2026-04-14 00:54 29.99529 -87.19422 125 ft 45 kts 36°
2026-04-14 00:54 30.00105 -87.19635 473 ft 117 kts 346°
2026-04-14 00:54 30.00951 -87.19862 465 ft 139 kts 12°
2026-04-14 00:54 30.01694 -87.19114 200 ft 127 kts 43°
2026-04-14 00:55 30.02197 -87.18572 139 ft 75 kts 48°
2026-04-14 00:55 30.02265 -87.18048 219 ft 60 kts 42°
2026-04-14 00:55 30.02230 -87.17719 515 ft 22 kts 41°
2026-04-14 00:55 30.02191 -87.17619 306 ft 8 kts 38°
2026-04-14 00:56 30.02401 -87.17946 214 ft 127 kts 268°
2026-04-14 00:56 30.01970 -87.18729 295 ft 114 kts 209°
2026-04-14 00:56 30.01254 -87.19106 86 ft 119 kts 197°
2026-04-14 00:56 30.00483 -87.19270 291 ft 94 kts 187°
2026-04-14 00:57 29.99923 -87.19385 313 ft 70 kts 174°
2026-04-14 00:57 29.99624 -87.19463 210 ft 28 kts 90°
2026-04-14 00:57 29.99454 -87.19450 146 ft 21 kts 74°
2026-04-14 00:57 29.99450 -87.19420 86 ft 2 kts 90°
2026-04-14 00:58 29.99450 -87.19421 74 ft 0 kts 86°
2026-04-14 00:59 29.99460 -87.19403 86 ft 8 kts 85°
2026-04-14 00:59 29.99518 -87.19270 147 ft 44 kts 84°
2026-04-14 00:59 29.99648 -87.18915 180 ft 99 kts 66°
2026-04-14 00:59 30.00504 -87.18902 212 ft 118 kts 300°
2026-04-14 01:00 30.00141 -87.19454 197 ft 91 kts 122°
2026-04-14 01:00 29.99779 -87.19459 202 ft 41 kts 76°
2026-04-14 01:00 29.99510 -87.19430 169 ft 31 kts 81°
2026-04-14 01:00 29.99430 -87.19479 111 ft 3 kts 82°
2026-04-14 01:01 29.99448 -87.19411 85 ft 12 kts 90°
2026-04-14 01:01 29.99449 -87.19381 78 ft 0 kts 91°
2026-04-14 01:01 29.99449 -87.19393 89 ft 2 kts 86°
2026-04-14 01:01 29.99489 -87.19368 108 ft 18 kts 92°
2026-04-14 01:02 29.99581 -87.18953 206 ft 84 kts 79°
2026-04-14 01:02 29.99769 -87.18318 283 ft 94 kts 58°
2026-04-14 01:02 30.00596 -87.18188 580 ft 148 kts 356°
2026-04-14 01:02 30.01510 -87.17992 1126 ft 129 kts 21°
2026-04-14 01:03 30.02366 -87.17703 970 ft 129 kts 23°
2026-04-14 01:03 30.03265 -87.17717 925 ft 131 kts 358°
2026-04-14 01:03 30.04160 -87.17897 1105 ft 130 kts 355°
2026-04-14 01:03 30.05049 -87.18035 950 ft 132 kts 355°
2026-04-14 01:04 30.05940 -87.18180 881 ft 126 kts 357°
2026-04-14 01:04 30.06840 -87.18288 1136 ft 149 kts 358°
2026-04-14 01:04 30.07966 -87.18451 1009 ft 154 kts 355°
2026-04-14 01:04 30.08882 -87.18584 1030 ft 122 kts 356°
2026-04-14 01:05 30.09807 -87.18711 990 ft 136 kts 355°
2026-04-14 01:05 30.10744 -87.18860 965 ft 134 kts 355°
2026-04-14 01:05 30.11686 -87.19004 980 ft 139 kts 351°
2026-04-14 01:05 30.12639 -87.19118 985 ft 138 kts 354°
2026-04-14 01:06 30.13578 -87.19277 989 ft 138 kts 354°
2026-04-14 01:06 30.14509 -87.19353 1002 ft 130 kts
2026-04-14 01:06 30.15419 -87.19080 1006 ft 138 kts 17°
2026-04-14 01:06 30.16335 -87.18827 1012 ft 136 kts 17°
2026-04-14 01:07 30.17247 -87.18577 1011 ft 135 kts 17°
2026-04-14 01:07 30.18157 -87.18318 1015 ft 135 kts 17°
2026-04-14 01:07 30.19072 -87.18067 993 ft 135 kts 17°
2026-04-14 01:07 30.19941 -87.17829 1012 ft 131 kts 17°
2026-04-14 01:08 30.20832 -87.17565 969 ft 132 kts 17°
2026-04-14 01:08 30.21755 -87.17304 975 ft 146 kts 17°
2026-04-14 01:08 30.22759 -87.16973 1032 ft 143 kts 17°
2026-04-14 01:08 30.23621 -87.16762 1010 ft 129 kts 15°
2026-04-14 01:09 30.24545 -87.16543 1019 ft 133 kts 15°
2026-04-14 01:09 30.25464 -87.16311 1030 ft 129 kts 15°
2026-04-14 01:09 30.26386 -87.16075 1019 ft 134 kts 15°
2026-04-14 01:09 30.27313 -87.15840 1016 ft 138 kts 15°
2026-04-14 01:10 30.28190 -87.15539 1017 ft 133 kts 21°
2026-04-14 01:10 30.29062 -87.15199 1006 ft 134 kts 16°
2026-04-14 01:10 30.29984 -87.14963 1016 ft 136 kts 14°
2026-04-14 01:10 30.30902 -87.14741 1016 ft 135 kts 14°
2026-04-14 01:11 30.31793 -87.14505 1036 ft 127 kts 19°
2026-04-14 01:11 30.32607 -87.14084 1013 ft 135 kts 15°
2026-04-14 01:11 30.33527 -87.13853 1002 ft 137 kts 18°
2026-04-14 01:11 30.34446 -87.13601 1015 ft 137 kts 15°
2026-04-14 01:12 30.35373 -87.13363 1015 ft 133 kts 16°
2026-04-14 01:12 30.36282 -87.13117 1020 ft 131 kts 15°
2026-04-14 01:12 30.37157 -87.12863 1015 ft 140 kts
2026-04-14 01:12 30.38036 -87.12447 1007 ft 136 kts 12°
2026-04-14 01:13 30.38965 -87.12199 1021 ft 135 kts
2026-04-14 01:13 30.39813 -87.11897 1174 ft 127 kts 23°
2026-04-14 01:13 30.40679 -87.11469 1019 ft 134 kts 27°
2026-04-14 01:13 30.41534 -87.11078 982 ft 141 kts 24°
2026-04-14 01:14 30.42417 -87.10695 1469 ft 134 kts 24°
2026-04-14 01:14 30.43310 -87.10314 1551 ft 136 kts 24°
2026-04-14 01:14 30.44086 -87.09996 1817 ft 109 kts 24°
2026-04-14 01:14 30.44770 -87.09640 1924 ft 122 kts 30°
2026-04-14 01:15 30.45760 -87.09205 802 ft 175 kts 14°
2026-04-14 01:15 30.46924 -87.09081 621 ft 154 kts 355°
2026-04-14 01:15 30.47756 -87.09208 697 ft 108 kts 353°
2026-04-14 01:15 30.48591 -87.09311 911 ft 130 kts 359°
2026-04-14 01:16 30.49484 -87.08866 879 ft 152 kts 38°
2026-04-14 01:16 30.50223 -87.08106 864 ft 134 kts 28°
2026-04-14 01:16 30.51156 -87.07792 940 ft 152 kts 15°
2026-04-14 01:16 30.52230 -87.07438 972 ft 170 kts 15°
2026-04-14 01:18 30.58677 -87.05597 1035 ft 144 kts 15°
2026-04-14 01:18 30.59618 -87.05299 1036 ft 133 kts 18°
2026-04-14 01:19 30.60556 -87.04976 1055 ft 127 kts 18°
2026-04-14 01:19 30.61472 -87.04679 1039 ft 133 kts 17°
2026-04-14 01:19 30.62384 -87.04410 1043 ft 137 kts 14°
2026-04-14 01:19 30.63284 -87.04130 1034 ft 136 kts 17°
2026-04-14 01:20 30.64174 -87.03897 1026 ft 141 kts 14°
2026-04-14 01:20 30.65079 -87.03616 1007 ft 120 kts 19°
2026-04-14 01:20 30.65990 -87.03330 1025 ft 142 kts 18°
2026-04-14 01:20 30.66857 -87.03104 884 ft 124 kts 18°
2026-04-14 01:21 30.67738 -87.02832 773 ft 108 kts 17°
2026-04-14 01:21 30.68424 -87.02553 741 ft 91 kts 21°
2026-04-14 01:21 30.69039 -87.02262 586 ft 95 kts 25°
2026-04-14 01:21 30.69479 -87.02008 431 ft 48 kts 23°
2026-04-14 01:22 30.69713 -87.01845 332 ft 32 kts 19°
2026-04-14 01:22 30.69872 -87.01757 298 ft 20 kts
2026-04-14 01:22 30.69970 -87.01682 256 ft 17 kts
2026-04-14 01:22 30.70055 -87.01663 204 ft 6 kts
2026-04-14 01:23 30.70071 -87.01663 177 ft 0 kts